Probability
0 0 0 0 0 0 0 0 0 0 0 0 0 0 0 0 0 0 0 0 0 0 0 0 0 0 0 0 0 0 0 0 0 0 0 0 0 0 0 0 0 0 0
0 0 0 0 0 0 0 0 0 0 0 0 0 0 0 0 0 0 0 0 0 0 0 0 0 0 0 0 0 0 0 0 0 0 0 0 0 0 0 0 0 0 0
0 0 0 0 0 0 0 0 0 0 0 0 0 0 0 0 0 0 0 0 0 0 0 0 0 0 0 0 0 0 0 0 0 0 0 0 0 0 0 0 0 0 0
0 0 0 0 0 0 0 0 0 0 0 0 0 0 0 0 0 0 0 0 0 0 0 0 0 0 0 0 0 0 0 0 0 0 0 0 0 0 0 0 0 0 0
0 0 0 0 0 0 0 0 0 0 0 0 0 0 0 0 0 0 0 0 0 0 0 0 0 0 0 0 0 0 0 0 0 0 0 0 0 0 0 0 0 0 0
0 0 0 0 0 0 0 0 0 0 0 0 0 0 0 0 0 0 0 0 0 0 0 0 0 0 0 0 0 0 0 0 0 0 0 0 0 0 0 0 0 0 0
0 0 0 0 0 0 0 0 0 0 0 0 0 0 0 0 0 0 0 0 0 0 0 0 0 0 0 0 0 0 0 0 0 0 0 0 0 0 0 0 0 0 0
0 0 0 0 0 0 0 0 0 0 0 0 0 0 0 0 0 0 0 0 0 0 0 0 0 0 0 0 0 0 0 0 0 0 0 0 0 0 0 0 0 0 0
0 0 0 0 0 0 0 0 0 0 0 0 0 0 0 0 0 0 0 0 0 0 0 0 0 0 0 0 0 0 0 0 0 0 0 0 0 0 0 0 0 0 0
0 0 0 0 0 0 0 0 0 0 0 0 0 0 0 0 0 0 0 0 0 0 0 0 0 0 0 0 0 0 0 0 0 0 0 0 0 0 0 0 0 0 0
0 0 0 0 0 0 0 0 0 0 0 0 0 0 0 0 0 0 0 0 0 0 0 0 0 0 0 0 0 0 0 0 0 0 0 0 0 0 0 0 0 0 0
0 0 0 0 0 0 0 0 0 0 0 0 0 0 0 0 0 0 0 0 0 0 0 0 0 0 0 0 0 0 0 0 0 0 0 0 0 0 0 0 0 0 0
0 0 0 0 0 0 0 0 0 0 0 0 0 0 0 0 0 0 0 0 0 0 0 0 0 0 0 0 0 0 0 0 0 0 0 0 0 0 0 0 0 0 0
0 0 0 0 0 0 0 0 0 0 0 0 0 0 0 0 0 0 0 0 0 0 0 0 0 0 0 0 0 0 0 0 0 0 0 0 0 0 0 0 0 0 0
0 0 0 0 0 0 0 0 0 0 0 0 0 0 0 0 0 0 0 0 0 0 0 0 0 0 0 0 0 0 0 0 0 0 0 0 0 0 0 0 0 0 0
0 0 0 0 0 0 0 0 0 0 1 1 1 0 0 0 0 0 0 0 0 0 0 0 0 0 0 0 0 0 0 0 0 0 0 0 0 0 0 0 0 0 0
0 0 0 0 0 0 0 0 0 1 2 2 1 0 0 0 0 0 0 0 0 0 0 0 0 0 0 0 0 0 0 0 0 0 0 0 0 0 0 0 0 0 0
0 0 0 0 0 0 0 0 0 1 2 1 1 0 0 0 0 0 0 0 0 0 0 0 0 0 0 0 0 0 0 0 0 0 0 0 0 0 0 0 0 0 0
0 0 0 0 0 0 0 0 0 1 1 0 0 0 0 0 0 0 0 0 0 0 0 0 0 0 0 0 0 0 0 0 0 0 0 0 0 0 0 0 0 0 0
0 0 0 0 0 0 0 0 0 0 0 0 0 0 0 0 0 0 0 0 0 0 0 0 0 0 0 0 0 0 0 0 0 0 0 0 0 0 0 0 0 0 0
0 0 0 0 0 0 0 0 0 0 0 0 0 0 0 0 0 0 0 0 0 0 0 0 0 0 0 0 0 0 0 0 0 0 0 0 0 0 0 0 0 0 0
0 0 0 0 0 0 0 0 0 0 0 0 0 0 0 0 0 0 0 0 0 0 0 0 0 0 0 0 0 0 0 0 0 0 0 0 0 0 0 0 0 0 0
0 0 0 0 0 0 0 0 0 0 0 0 0 0 0 0 0 0 0 0 0 0 0 0 0 0 0 0 0 0 0 0 0 0 0 0 0 0 0 0 0 0 0
0 0 0 0 0 0 0 0 0 0 0 0 0 0 0 0 0 0 0 0 0 0 0 0 0 0 0 0 0 0 0 0 0 0 0 0 0 0 0 0 0 0 0
0 0 0 0 0 0 0 0 0 0 0 0 0 0 0 0 0 0 0 0 0 0 0 0 0 0 0 0 0 0 0 0 0 0 0 0 0 0 0 0 0 0 0
0 0 0 0 0 0 0 0 0 0 0 0 0 0 0 0 0 0 0 0 0 0 0 0 0 0 0 0 0 0 0 0 0 0 0 0 0 0 0 0 0 0 0
Wind_Speed
3 3 2 2 2 2 2 2 2 2 2 2 2 2 3 3 3 2 2 4 6 7 8 8 8 8 7 6 6 6 6 6 5 5 5 5 5 5 5 5 5 6 6
3 3 3 3 3 3 3 3 3 2 2 2 2 2 3 3 3 3 2 3 5 6 7 8 8 8 7 7 7 7 7 6 5 5 5 6 6 5 5 6 6 7 6
4 4 3 3 3 3 3 2 2 2 2 2 2 3 2 3 3 3 3 2 3 4 6 8 8 7 7 7 7 8 7 7 6 6 6 6 5 5 6 6 6 7 6
5 4 4 4 3 3 3 3 2 2 2 2 2 2 2 2 3 3 3 3 2 2 3 5 6 7 7 8 8 8 8 8 7 7 6 6 6 6 6 6 7 7 7
4 4 4 4 4 3 3 3 3 2 2 2 2 2 2 3 3 3 3 3 3 2 2 3 4 5 7 8 8 8 9 8 8 7 6 6 6 7 7 7 8 8 8
3 3 3 3 3 3 3 3 4 3 3 2 2 3 3 3 3 3 3 3 2 2 2 2 2 3 5 7 7 8 9 9 8 7 6 6 7 7 7 7 8 8 8
2 3 3 3 3 4 4 5 4 4 3 2 1 3 3 3 3 3 2 2 2 2 2 2 2 2 2 5 7 8 9 9 9 7 7 6 7 7 7 7 7 7 8
2 2 2 2 3 3 4 4 3 2 3 3 2 1 3 3 2 2 2 2 2 1 2 2 2 2 2 2 3 6 7 8 9 8 8 7 7 7 8 8 8 8 9
1 1 2 2 2 3 3 4 4 4 4 4 4 3 3 3 2 2 2 2 1 1 2 2 2 2 2 2 2 4 5 6 7 7 7 7 8 8 8 8 9 9 9
2 2 2 2 2 2 3 3 4 4 4 3 3 3 3 2 2 3 2 1 1 2 2 2 2 2 2 2 2 3 3 4 4 6 7 7 8 8 9 9 9 10 10
2 3 3 2 2 2 2 3 3 4 4 4 3 2 3 3 3 4 5 3 2 2 3 3 2 2 2 2 2 3 4 4 4 5 6 7 7 8 9 9 10 10 10
2 3 3 3 2 2 2 3 3 3 3 4 3 3 3 2 3 4 6 5 4 3 3 3 3 3 2 2 3 4 4 5 5 5 5 6 7 7 8 9 9 9 9
2 3 3 3 3 3 3 3 3 3 3 3 3 3 3 3 2 3 5 5 5 3 3 2 3 2 2 2 2 4 4 5 5 5 5 5 6 6 6 7 8 8 8
3 4 4 4 3 3 3 3 3 3 3 3 3 3 3 3 3 3 3 4 5 4 4 4 1 2 2 2 3 3 3 5 5 5 5 5 6 6 7 7 7 8 8
3 4 4 4 4 4 4 4 3 3 3 3 3 3 3 3 3 3 3 3 4 6 6 3 2 2 1 1 2 1 2 4 5 5 6 6 6 6 7 7 7 7 7
4 4 4 4 4 4 4 3 3 4 3 3 3 3 3 3 3 3 3 3 4 5 6 3 2 1 1 1 1 1 2 4 4 5 5 6 6 6 6 6 7 7 8
4 4 4 4 4 4 4 3 3 4 4 4 4 4 4 4 3 3 3 3 3 4 6 4 2 1 2 2 2 2 2 2 2 4 5 6 6 6 6 6 7 7 7
4 4 4 4 4 4 4 3 4 4 4 4 4 4 5 4 5 4 3 4 4 3 5 6 3 2 2 2 2 2 2 2 2 4 5 5 5 5 5 6 6 7 7
4 4 4 4 5 4 4 4 3 3 4 4 4 4 5 5 5 4 4 4 4 3 3 3 4 2 2 1 2 2 2 2 3 4 4 4 5 5 5 6 6 6 7
4 4 4 4 4 5 4 4 4 3 3 4 4 4 4 4 4 5 4 4 4 4 3 2 2 2 2 1 1 2 3 2 3 3 3 4 5 6 6 6 6 6 7
4 4 4 4 4 4 4 4 4 4 4 4 4 4 4 5 5 5 4 4 4 3 3 2 2 2 2 1 2 2 3 3 3 2 3 3 4 3 4 5 5 6 7
4 4 4 4 4 4 7 7 6 4 4 4 4 4 4 4 4 6 6 6 5 4 3 3 3 3 3 2 2 2 3 3 4 2 3 4 3 4 4 3 6 8 8
5 5 4 4 5 5 8 8 7 5 4 4 4 4 4 4 3 4 5 5 5 5 5 3 3 4 3 3 2 3 3 3 4 3 3 5 2 4 4 5 8 8 8
4 4 5 5 5 6 9 8 7 4 3 4 4 4 4 4 4 4 4 4 4 4 4 3 2 3 3 2 2 3 3 3 3 2 2 4 3 4 4 4 7 7 7
5 5 5 5 5 6 9 8 7 3 3 4 4 4 3 4 5 5 4 4 4 4 4 4 4 3 3 3 2 1 1 2 3 2 1 3 3 4 4 4 4 6 7
5 5 5 5 5 5 8 8 7 3 3 4 4 4 4 5 6 6 3 3 4 4 3 3 4 4 4 3 3 2 2 2 2 3 1 2 3 3 4 3 3 4 5
Wind_Direction
200 205 211 213 217 214 216 223 230 240 246 253 255 255 268 270 270 270 289 298 296 296 295 296 297 297 300 304 307 307 308 308 307 304 303 302 300 298 301 305 302 303 307
201 202 212 217 223 222 221 221 224 232 245 247 257 256 260 265 267 267 268 288 293 291 288 290 294 296 297 301 305 306 306 305 307 306 300 294 292 291 294 298 299 298 297
205 206 211 219 226 222 220 221 226 229 247 252 260 263 263 261 259 263 266 269 281 292 286 283 287 290 293 296 300 301 302 301 300 299 295 292 285 284 286 288 291 292 292
210 205 213 223 222 212 210 218 221 230 243 249 262 269 264 262 260 261 266 267 267 277 287 285 284 285 288 293 296 299 300 298 295 293 293 291 285 284 285 288 287 287 289
217 213 219 222 212 212 216 220 219 217 234 246 261 274 271 264 262 258 260 264 260 263 268 283 280 280 282 286 292 296 297 296 292 288 287 285 283 281 283 283 284 282 284
229 224 227 226 213 217 222 219 222 222 221 228 257 277 275 266 262 256 258 261 258 258 261 269 280 283 280 281 289 294 294 293 291 287 284 282 282 281 283 284 285 283 285
240 233 242 230 220 225 229 223 222 224 226 204 234 287 283 259 255 256 256 254 256 256 252 255 263 275 285 285 290 295 297 297 294 291 289 286 282 282 286 288 290 289 290
271 249 253 250 232 235 239 235 226 226 227 202 197 251 287 293 267 253 251 246 255 258 261 261 259 265 271 278 306 304 303 301 300 299 297 296 291 286 286 287 289 287 289
324 320 292 280 264 239 236 236 229 230 235 222 208 206 230 251 292 272 243 240 243 253 262 266 269 278 285 283 287 304 309 305 305 305 305 304 301 294 291 290 289 287 288
347 344 336 309 298 290 274 251 235 241 237 238 231 228 231 210 235 284 278 257 244 244 250 258 270 279 279 279 291 311 310 306 307 303 302 303 304 300 296 295 294 294 293
354 359 349 335 319 299 298 309 290 260 241 236 231 232 238 242 229 245 273 274 263 239 234 232 236 248 255 260 269 293 299 296 298 302 302 302 301 302 299 298 295 293 293
348 354 347 340 329 323 316 306 306 302 285 261 245 236 228 228 230 235 253 264 267 255 231 232 232 236 238 249 270 291 293 294 295 296 298 299 300 302 301 299 298 295 295
330 332 333 329 327 325 324 324 313 301 295 290 267 259 253 251 252 248 253 264 266 264 239 228 223 231 240 237 266 286 282 282 285 289 292 297 299 302 302 301 300 300 301
324 335 332 325 325 331 333 329 314 309 307 296 296 289 278 272 266 257 254 259 272 269 250 247 223 224 245 251 267 276 284 286 288 291 295 297 296 299 298 296 297 300 303
348 350 347 342 343 344 341 335 324 319 314 305 306 306 304 303 295 283 271 254 255 268 266 243 228 223 247 258 274 270 277 291 295 297 300 300 298 297 297 300 301 304 307
356 352 351 349 347 348 346 339 331 327 327 321 317 315 313 309 302 299 288 278 265 263 270 264 246 273 269 272 290 293 280 302 302 300 300 304 305 303 303 306 308 310 312
356 355 353 349 347 349 347 344 342 339 336 335 335 328 323 316 305 303 294 286 278 270 270 279 287 301 275 291 306 295 291 295 305 309 307 309 307 305 307 312 316 317 316
352 350 349 347 344 344 341 339 339 343 334 332 334 332 326 323 320 310 301 295 288 282 270 274 288 295 281 286 296 295 299 296 294 303 302 305 315 319 317 316 317 316 315
353 355 353 347 340 338 336 335 338 339 331 328 330 326 322 320 315 314 312 305 300 300 285 274 282 287 286 295 306 307 300 304 306 307 301 303 312 319 319 316 316 316 317
350 352 349 345 338 333 334 339 339 336 330 329 332 326 319 317 316 318 314 309 308 305 294 277 278 289 289 303 298 300 307 315 310 319 316 318 317 318 311 308 308 310 312
344 341 341 341 338 331 333 338 336 329 325 326 332 331 323 323 320 319 312 307 307 301 299 293 283 296 294 305 294 294 290 309 306 312 319 315 312 308 303 300 301 302 303
338 338 333 331 329 325 327 333 335 325 320 319 322 327 325 327 330 334 331 320 307 298 291 282 277 275 285 298 308 301 300 309 298 312 316 301 306 299 301 295 302 303 301
333 333 327 326 320 317 325 328 333 331 320 314 313 314 315 324 330 331 328 330 328 319 301 288 278 274 278 282 280 284 284 292 287 305 313 291 295 290 297 299 302 303 306
324 319 319 319 319 318 323 326 333 335 323 315 311 305 305 311 319 325 323 329 331 331 323 319 292 296 298 297 279 273 275 287 295 300 306 282 294 293 303 300 298 300 307
314 313 312 313 310 311 316 321 330 323 318 317 314 309 301 301 306 321 322 318 322 327 343 350 342 336 330 325 316 310 303 302 296 292 302 281 294 309 297 288 296 305 310
307 311 311 312 308 308 313 316 324 316 312 313 315 309 299 302 304 312 308 299 299 310 332 343 350 351 347 343 342 318 274 265 284 282 285 299 302 325 306 292 308 310 309